Home > Weather > Landsberg am Lech > Past weeks

Flag for Germany Past Weather in Landsberg am Lech, Bavaria, Germany — Yesterday and Last 2 Weeks

Now
82 °F

Partly sunny.


Feels Like: 81 °F
Forecast: 60 / 74 °F
Wind: 13 mph from Southwest

Location: Landsberg

Current Time: Jul 30, 2016 at 6:58:55 PM

Latest Report: Jul 30, 2016 at 6:20 PM


Visibility: N/A

Pressure: 29.95 "Hg (28.00 "Hg at 593m altitude)

Humidity: 37%

Dew Point: 54 °F

Location of Landsberg am LechLocation

Past Weather in Landsberg am Lech — Graph

°F

Landsberg am Lech Temperature Yesterday

Maximum temperature yesterday: 77 °F (at 4:20 PM)
Minimum temperature yesterday: 61 °F (at 12:20 AM)
Average temperature yesterday: 68 °F

High & Low Weather Summary for the Past Weeks

 TemperatureHumidityPressure
High84 °F (Jul 20, 4:20 PM)100% (Jul 22, 2:20 AM)30.36 "Hg (Jul 22, 2:20 AM)
Low46 °F (Jul 16, 2:20 AM)33% (Jul 20, 4:20 PM)29.98 "Hg (Jul 21, 4:20 AM)
Average67 °F71%30.13 "Hg
* Reported Jul 15 5:20 PM — Jul 30 5:20 PM, Landsberg am Lech, Weather by CustomWeather, © 2016

Note: Actual official high and low records may vary slightly from our data, if they occured in-between our weather recording intervals... More about our weather records

Advertising

Landsberg am Lech Weather History for the Previous 24 Hours

Scroll right to see more
 ConditionsComfort  
Time TempWeatherWind HumidityBarometerVisibility
5:20 PM
Sat, Jul 30
82 °FPassing clouds.18 mph37%29.98 "HgN/A
4:20 PM82 °FPassing clouds.25 mph37%29.98 "HgN/A
3:20 PM82 °FPassing clouds.14 mph42%29.98 "HgN/A
2:20 PM81 °FPassing clouds.13 mph45%29.98 "HgN/A
1:20 PM81 °FPassing clouds.10 mph45%30.01 "HgN/A
12:20 PM79 °FPassing clouds.7 mph45%30.01 "HgN/A
11:20 AM77 °FPassing clouds.5 mph51%30.01 "HgN/A
10:20 AM75 °FPassing clouds.5 mph54%30.04 "HgN/A
9:20 AM72 °FPassing clouds.6 mph61%30.04 "HgN/A
8:20 AM68 °FPassing clouds.7 mph73%30.04 "HgN/A
7:20 AM63 °FPassing clouds.3 mph83%30.04 "HgN/A
6:20 AM59 °FPassing clouds.2 mph88%30.04 "HgN/A
5:20 AM59 °FPassing clouds.5 mph88%30.04 "HgN/A
4:20 AM61 °FPassing clouds.2 mph83%30.04 "HgN/A
3:20 AM63 °FPassing clouds.2 mph83%30.04 "HgN/A
2:20 AM63 °FPassing clouds.3 mph83%30.04 "HgN/A
1:20 AM63 °FPassing clouds.5 mph83%30.04 "HgN/A
12:20 AM64 °FMild.7 mph73%30.04 "HgN/A
11:20 PM
Fri, Jul 29
64 °FPassing clouds.6 mph78%30.04 "HgN/A
10:20 PM68 °FPassing clouds.6 mph64%30.04 "HgN/A
9:20 PM72 °FPassing clouds.7 mph57%30.01 "HgN/A
8:20 PM73 °FPassing clouds.7 mph50%30.01 "HgN/A
7:20 PM77 °FPassing clouds.10 mph44%30.01 "HgN/A
7:02 PM77 °FPassing clouds.9 mph44%30.01 "HgN/A
6:20 PM77 °FPassing clouds.12 mph44%30.01 "HgN/A
Weather by CustomWeather, © 2016

See weather overviewHow to use our weather pages